Location: El Álamo
(40.2307°N, 3.9945°W)
Time: 04:48:50
(UTC+00:00)

Cosmos 1953 Rocket - Pass Details

Date: 19 May 2025
Orbit: 599 x 628 km, 82.5° (Epoch: 23 June)

Event Time Altitude Azimuth Distance (km) Brightness Sun altitude
Rises 21:14:24 0° 346° (NNW) 2,925 8.1 -16.9°
Reaches altitude 10° 21:16:43 10° 340° (NNW) 2,012 7.2 -17.2°
Maximum altitude 21:20:58 47° 268° (W) 839 4.5 -17.8°
Enters shadow 21:24:16 16° 199° (SSW) 1,639 5.4 -18.2°
